Overview Statistics Trail Chart Weather Telemetry Raw packets
 

This is the latest recevied weather packets stored in our database for station/object DL5DI-H. If no packets are shown the sender has not sent any weather packets the latest 10 day(s).

<< 10 11 12 13 14 15 16 >>
Time Temp. Humidity Pressure Rain* Wind** Luminosity Snow
1788533400 29.44° C 52% 1013.6 hPa 0 mm - - -
1788532800 29.44° C 52% 1013.6 hPa 0 mm - - -
1788532202 29.44° C 51% 1013.5 hPa 0 mm - - -
1788531602 29.44° C 51% 1013.5 hPa 0 mm - - -
1788531002 30° C 50% 1013.3 hPa 0 mm - - -
1788530402 29.44° C 51% 1013.1 hPa 0 mm - - -
1788529800 29.44° C 51% 1013.1 hPa 0 mm - - -
1788529202 29.44° C 52% 1013.2 hPa 0 mm - - -
1788528602 29.44° C 51% 1013.1 hPa 0 mm - - -
1788528000 28.89° C 52% 1013.2 hPa 0 mm - - -
1788527402 28.89° C 52% 1013.3 hPa 0 mm - - -
1788526802 29.44° C 51% 1013.3 hPa 0 mm - - -
1788526203 29.44° C 52% 1013.4 hPa 0 mm - - -
1788525602 29.44° C 51% 1013.5 hPa 0 mm - - -
1788525001 29.44° C 52% 1013.5 hPa 0 mm - - -
1788524400 28.89° C 53% 1013.5 hPa 0 mm - - -
1788523800 28.89° C 54% 1013.6 hPa 0 mm - - -
1788523202 28.33° C 55% 1013.6 hPa 0 mm - - -
1788522603 28.33° C 56% 1013.8 hPa 0 mm - - -
1788522001 27.78° C 58% 1013.9 hPa 0 mm - - -
1788521402 27.78° C 59% 1014 hPa 0 mm - - -
1788520801 27.22° C 59% 1014.3 hPa 0 mm - - -
1788520202 27.22° C 59% 1014.4 hPa 0 mm - - -
1788519601 27.22° C 59% 1014.4 hPa 0 mm - - -
1788519002 27.22° C 60% 1014.6 hPa 0 mm - - -

* Rain latest hour (hover to see other rain measurements)
** Current wind speed in m/s (hover to see current wind gust speed)